KD7DVD-1 Weather Reports


Display with metric or nautical units.
time (UTC)temp
F
wind
direction
speed
MPH
gust
MPH
rain 1hr
in
rain 24hr
in
rain mn
in
humidity
%
barometer
mb
20260831120016 57 0.0 0.0 0.00 0.00 0.00 89 1014.1
20260831113016 57 0.0 0.0 0.00 0.00 0.00 88 1014.5
20260831110017 58 0.0 1.0 0.00 0.00 0.00 87 1014.7
20260831103016 58 0.0 1.0 0.00 0.00 0.00 85 1014.8
20260831100016 58 0.0 3.0 0.00 0.00 0.00 83 1015.0
20260831093016 60 90 1.0 3.0 0.00 0.00 0.00 81 1015.5
20260831090016 60 0.0 3.0 0.00 0.00 0.00 79 1015.6
20260831083016 59 0.0 2.0 0.00 0.00 0.00 80 1015.6
20260831080016 58 0.0 0.0 0.00 0.00 0.00 82 1016.0
20260831073017 58 0.0 0.0 0.00 0.00 0.00 81 1016.1
20260831070016 58 0.0 0.0 0.00 0.00 0.00 80 1016.4
20260831063017 59 0.0 0.0 0.00 0.00 0.00 78 1016.7
20260831060017 61 0.0 1.0 0.00 0.00 0.00 75 1016.7
20260831053017 61 0.0 0.0 0.00 0.00 0.00 74 1017.1
20260831050017 62 0.0 1.0 0.00 0.00 0.00 72 1017.3
20260831043017 61 0.0 0.0 0.00 0.00 0.00 73 1017.4
20260831040017 63 0.0 1.0 0.00 0.00 0.00 69 1017.3
20260831033017 64 0.0 1.0 0.00 0.00 0.00 65 1017.2
20260831030017 65 0.0 1.0 0.00 0.00 0.00 62 1017.2
20260831023017 66 0.0 1.0 0.00 0.00 0.00 60 1017.1
20260831020016 68 0.0 4.0 0.00 0.00 0.00 57 1017.4
20260831013017 68 270 1.0 5.0 0.00 0.00 0.00 54 1017.6
20260831010016 70 0.0 4.0 0.00 0.00 0.00 55 1017.9
20260831003016 71 0.0 3.0 0.00 0.00 0.00 53 1018.0
20260831000016 71 0.0 4.0 0.00 0.00 0.00 51 1018.1
20260830233016 69 0.0 3.0 0.00 0.00 0.00 57 1018.4
20260830230016 69 0.0 6.0 0.00 0.00 0.00 60 1018.4
20260830223016 69 0.0 4.0 0.00 0.00 0.00 60 1018.7
20260830220017 68 0.0 4.0 0.00 0.00 0.00 61 1019.0
20260830213016 67 0.0 3.0 0.00 0.00 0.00 63 1019.3
20260830210016 67 0.0 3.0 0.00 0.00 0.00 60 1019.4
20260830203016 67 0.0 4.0 0.00 0.00 0.00 64 1019.6
20260830200016 67 0.0 2.0 0.00 0.00 0.00 67 1019.9
20260830193015 65 0.0 4.0 0.00 0.00 0.00 69 1020.0
20260830190015 64 0.0 4.0 0.00 0.00 0.00 71 1020.1
20260830183015 64 0.0 3.0 0.00 0.00 0.00 71 1020.1
20260830180015 63 0.0 5.0 0.00 0.00 0.00 72 1020.2
20260830173017 62 0.0 2.0 0.00 0.00 0.00 75 1020.1
20260830170017 61 0.0 2.0 0.00 0.00 0.00 75 1020.1
20260830163017 60 0.0 1.0 0.00 0.00 0.00 78 1020.1
20260830160017 59 0.0 1.0 0.00 0.01 0.00 79 1020.2
20260830153017 58 0.0 1.0 0.00 0.01 0.00 83 1020.1
20260830150017 56 0.0 0.0 0.00 0.08 0.00 87 1020.1
20260830143017 54 0.0 0.0 0.00 0.08 0.00 90 1019.9
20260830140017 53 0.0 0.0 0.00 0.32 0.00 90 1019.6
20260830133017 54 0.0 0.0 0.00 0.32 0.00 89 1019.6
20260830130017 55 0.0 0.0 0.00 0.32 0.00 88 1019.6
20260830123017 55 0.0 0.0 0.00 0.32 0.00 87 1019.5